GW5351 Weather Reports


Display with metric or nautical units.
time (UTC)temp
F
wind
direction
speed
MPH
gust
MPH
rain 1hr
in
rain 24hr
in
rain mn
in
humidity
%
barometer
mb
20260503032620 59 271 0.0 0.0 0.00 0.00 0.00 92 1021.1
20260503032118 59 271 0.0 0.0 0.00 0.00 0.00 92 1021.1
20260503031616 59 271 0.0 0.0 0.00 0.00 0.00 91 1021.0
20260503031113 59 271 0.0 0.0 0.00 0.00 0.00 91 1021.1
20260503030609 59 271 0.0 0.0 0.00 0.00 0.00 90 1021.1
20260503030106 59 271 0.0 0.0 0.00 0.00 0.00 89 1021.0
20260503025602 60 271 0.0 0.0 0.00 0.00 0.00 88 1020.9
20260503025100 60 272 0.0 0.0 0.00 0.00 0.00 88 1020.9
20260503024556 60 272 0.0 0.0 0.00 0.00 0.00 88 1021.1
20260503024054 60 272 0.0 0.0 0.00 0.00 0.00 87 1020.9
20260503023550 60 272 0.0 0.0 0.00 0.00 0.00 88 1021.1
20260503023048 60 272 0.0 0.0 0.00 0.00 0.00 87 1021.0
20260503022544 61 272 0.0 0.0 0.00 0.00 0.00 86 1020.8
20260503022038 61 271 0.0 0.0 0.00 0.00 0.00 86 1020.7
20260503021536 61 271 0.0 0.0 0.00 0.00 0.00 85 1020.7
20260503021032 62 272 0.0 0.0 0.00 0.00 0.00 84 1020.7
20260503020530 62 272 0.0 0.0 0.00 0.00 0.00 82 1020.6
20260503020026 63 272 0.0 0.0 0.00 0.00 0.00 81 1020.6
20260503015523 63 272 0.0 0.0 0.00 0.00 0.00 81 1020.5
20260503015020 63 272 0.0 0.0 0.00 0.00 0.00 80 1020.3
20260503014516 64 272 0.0 0.0 0.00 0.00 0.00 80 1020.3
20260503014014 64 272 0.0 0.0 0.00 0.00 0.00 79 1020.2
20260503013511 64 272 0.0 0.0 0.00 0.00 0.00 78 1020.2
20260503013009 65 272 0.0 0.0 0.00 0.00 0.00 76 1020.1
20260503012506 65 272 0.0 0.0 0.00 0.00 0.00 74 1020.2
20260503012002 66 272 0.0 0.0 0.00 0.00 0.00 70 1020.1
20260503011459 67 272 0.0 0.0 0.00 0.00 0.00 68 1020.1
20260503010956 68 272 0.0 0.0 0.00 0.00 0.00 67 1019.9
20260503010453 68 272 0.0 0.0 0.00 0.00 0.00 64 1019.9
20260503005950 69 272 0.0 0.0 0.00 0.00 0.00 62 1020.0
20260503005447 69 272 0.0 0.0 0.00 0.00 0.00 60 1019.8
20260503004944 70 272 0.0 0.0 0.00 0.00 0.00 58 1019.8
20260503004440 71 272 0.0 0.0 0.00 0.00 0.00 57 1019.7
20260503003938 71 272 0.0 0.0 0.00 0.00 0.00 56 1019.6
20260503003435 71 271 0.0 0.0 0.00 0.00 0.00 55 1019.6
20260503002932 72 271 0.0 1.0 0.00 0.00 0.00 54 1019.6
20260503002429 72 332 2.0 3.0 0.00 0.00 0.00 52 1019.6
20260503001926 73 273 1.0 2.0 0.00 0.00 0.00 52 1019.5
20260503001422 73 252 1.0 2.0 0.00 0.00 0.00 51 1019.6
20260503000920 73 267 1.0 1.0 0.00 0.00 0.00 51 1019.6
20260503000417 73 284 2.0 2.0 0.00 0.00 0.00 50 1019.5
20260502235914 74 292 1.0 2.0 0.00 0.00 0.00 50 1019.4
20260502235411 74 249 0.0 1.0 0.00 0.00 0.00 49 1019.2
20260502234908 74 4 2.0 3.0 0.00 0.00 0.00 48 1019.3
20260502234404 74 333 2.0 3.0 0.00 0.00 0.00 48 1019.1
20260502233902 74 345 4.0 4.0 0.00 0.00 0.00 47 1019.3
20260502233357 75 235 0.0 2.0 0.00 0.00 0.00 48 1019.3
20260502232854 74 26 3.0 7.0 0.00 0.00 0.00 48 1019.4
20260502232351 75 245 1.0 6.0 0.00 0.00 0.00 48 1019.3
20260502231847 75 13 5.0 7.0 0.00 0.00 0.00 47 1019.2
20260502231345 75 16 2.0 4.0 0.00 0.00 0.00 48 1019.2
20260502230843 75 288 2.0 3.0 0.00 0.00 0.00 47 1019.0
20260502230341 75 278 1.0 7.0 0.00 0.00 0.00 46 1019.1
20260502225838 75 302 4.0 8.0 0.00 0.00 0.00 46 1019.3
20260502225334 75 294 1.0 4.0 0.00 0.00 0.00 46 1019.4
20260502224831 76 293 2.0 7.0 0.00 0.00 0.00 46 1019.2
20260502224327 75 261 1.0 2.0 0.00 0.00 0.00 46 1019.2
20260502223825 76 220 2.0 3.0 0.00 0.00 0.00 44 1019.1
20260502223323 76 218 3.0 8.0 0.00 0.00 0.00 45 1019.3
20260502222820 75 215 0.0 1.0 0.00 0.00 0.00 46 1019.2
20260502222317 74 312 2.0 7.0 0.00 0.00 0.00 47 1019.3
20260502221813 75 304 4.0 11.0 0.00 0.00 0.00 45 1019.4
20260502221309 75 170 1.0 8.0 0.00 0.00 0.00 45 1019.5
20260502220807 75 323 2.0 7.0 0.00 0.00 0.00 47 1019.5
20260502220302 75 272 2.0 4.0 0.00 0.00 0.00 45 1019.6
20260502215759 75 261 4.0 9.0 0.00 0.00 0.00 46 1019.3
20260502215257 75 236 2.0 3.0 0.00 0.00 0.00 47 1019.4
20260502214754 75 239 2.0 4.0 0.00 0.00 0.00 47 1019.3
20260502214250 75 292 2.0 7.0 0.00 0.00 0.00 46 1019.5
20260502213747 76 7 6.0 9.0 0.00 0.00 0.00 43 1019.3
20260502213245 75 279 4.0 4.0 0.00 0.00 0.00 46 1019.5
20260502212744 75 238 2.0 4.0 0.00 0.00 0.00 47 1019.5
20260502212242 76 339 2.0 4.0 0.00 0.00 0.00 46 1019.6
20260502211737 75 254 2.0 4.0 0.00 0.00 0.00 47 1019.6
20260502211234 75 332 4.0 9.0 0.00 0.00 0.00 46 1019.8
20260502210731 75 288 2.0 6.0 0.00 0.00 0.00 48 1019.6
20260502210229 75 20 3.0 6.0 0.00 0.00 0.00 46 1019.7
20260502205726 75 197 0.0 4.0 0.00 0.00 0.00 46 1020.0
20260502205222 75 38 4.0 7.0 0.00 0.00 0.00 47 1020.0
20260502204719 75 341 4.0 9.0 0.00 0.00 0.00 46 1019.9
20260502204217 74 115 2.0 7.0 0.00 0.00 0.00 46 1019.8
20260502203714 74 5 7.0 10.0 0.00 0.00 0.00 47 1020.1
20260502203212 74 351 4.0 11.0 0.00 0.00 0.00 46 1020.0
20260502202705 75 275 4.0 9.0 0.00 0.00 0.00 45 1020.1
20260502202204 75 264 3.0 6.0 0.00 0.00 0.00 45 1020.1
20260502201701 75 265 2.0 7.0 0.00 0.00 0.00 46 1020.1
20260502201158 75 353 6.0 8.0 0.00 0.00 0.00 46 1020.2
20260502200653 74 340 2.0 3.0 0.00 0.00 0.00 47 1020.2
20260502200150 75 17 3.0 6.0 0.00 0.00 0.00 48 1020.2
20260502195649 74 1 4.0 7.0 0.00 0.00 0.00 46 1020.2
20260502195144 74 2 2.0 7.0 0.00 0.00 0.00 49 1020.5
20260502194641 74 233 3.0 6.0 0.00 0.00 0.00 49 1020.5
20260502194138 74 5 5.0 8.0 0.00 0.00 0.00 49 1020.4
20260502193635 74 321 5.0 7.0 0.00 0.00 0.00 47 1020.6
20260502193132 73 262 2.0 11.0 0.00 0.00 0.00 51 1020.5
20260502192627 73 305 2.0 9.0 0.00 0.00 0.00 48 1020.6
20260502192125 73 11 6.0 9.0 0.00 0.00 0.00 49 1020.8
20260502191621 73 220 0.0 4.0 0.00 0.00 0.00 55 1020.7
20260502191119 73 221 5.0 9.0 0.00 0.00 0.00 51 1020.9
20260502190616 73 304 3.0 11.0 0.00 0.00 0.00 50 1020.8
20260502190114 73 169 2.0 11.0 0.00 0.00 0.00 52 1020.8
20260502185608 73 327 4.0 6.0 0.00 0.00 0.00 52 1020.9
20260502185105 73 329 2.0 4.0 0.00 0.00 0.00 53 1020.9
20260502184601 73 5 4.0 6.0 0.00 0.00 0.00 55 1021.0
20260502184057 73 15 5.0 9.0 0.00 0.00 0.00 50 1021.2
20260502183553 73 319 2.0 8.0 0.00 0.00 0.00 54 1021.3
20260502183044 73 256 2.0 9.0 0.00 0.00 0.00 51 1021.3
20260502182539 72 7 2.0 10.0 0.00 0.00 0.00 52 1021.3
20260502182035 73 18 7.0 11.0 0.00 0.00 0.00 50 1021.5
20260502181533 73 331 2.0 6.0 0.00 0.00 0.00 52 1021.5
20260502181032 72 205 1.0 7.0 0.00 0.00 0.00 54 1021.6
20260502180528 73 346 3.0 6.0 0.00 0.00 0.00 55 1021.5
20260502170447 70 279 8.0 11.0 0.00 0.00 0.00 57 1021.9
20260502163930 69 251 3.0 8.0 0.00 0.00 0.00 59 1022.1
20260502163427 70 351 6.0 10.0 0.00 0.00 0.00 61 1022.1
20260502162925 69 342 3.0 6.0 0.00 0.00 0.00 63 1022.0
20260502162421 69 357 3.0 6.0 0.00 0.00 0.00 64 1022.0
20260502161918 68 345 7.0 9.0 0.00 0.00 0.00 63 1022.1
20260502161414 68 300 4.0 7.0 0.00 0.00 0.00 65 1022.0
20260502160913 67 280 6.0 8.0 0.00 0.00 0.00 67 1022.1
20260502160411 67 258 3.0 4.0 0.00 0.00 0.00 68 1022.1
20260502151849 65 320 4.0 11.0 0.00 0.00 0.00 73 1021.9
20260502151345 64 0 7.0 10.0 0.00 0.00 0.00 74 1021.5
20260502150843 64 334 4.0 7.0 0.00 0.00 0.00 75 1021.6
20260502150339 63 300 6.0 8.0 0.00 0.00 0.00 76 1021.8
20260502130727 53 238 1.0 4.0 0.00 0.00 0.00 99 1020.6
20260502130225 53 300 2.0 4.0 0.00 0.00 0.00 99 1020.4
20260502123711 52 229 0.0 2.0 0.00 0.00 0.00 99 1020.0
20260502123208 51 243 1.0 1.0 0.00 0.00 0.00 99 1020.0
20260502122704 51 243 0.0 1.0 0.00 0.00 0.00 99 1019.9
20260502122200 51 237 0.0 0.0 0.00 0.00 0.00 99 1020.0
20260502121659 51 234 0.0 1.0 0.00 0.00 0.00 99 1019.7
20260502121156 51 237 0.0 0.0 0.00 0.00 0.00 99 1019.7
20260502120653 50 243 0.0 0.0 0.00 0.00 0.00 99 1019.7
20260502120150 50 243 0.0 0.0 0.00 0.00 0.00 99 1019.4
20260502115647 50 243 0.0 0.0 0.00 0.00 0.00 99 1019.6
20260502115143 50 243 0.0 0.0 0.00 0.00 0.00 99 1019.6
20260502114639 50 243 0.0 1.0 0.00 0.00 0.00 99 1019.5
20260502114137 50 243 0.0 0.0 0.00 0.00 0.00 99 1019.4
20260502113634 50 243 0.0 0.0 0.00 0.00 0.00 99 1019.4
20260502113132 50 243 0.0 0.0 0.00 0.00 0.00 99 1019.4
20260502112630 50 243 0.0 0.0 0.00 0.00 0.00 99 1019.3
20260502112127 50 243 0.0 0.0 0.00 0.00 0.00 99 1019.1
20260502111625 50 227 0.0 0.0 0.00 0.00 0.00 99 1019.3
20260502111122 50 237 0.0 0.0 0.00 0.00 0.00 99 1019.0
20260502110620 51 237 0.0 0.0 0.00 0.00 0.00 99 1019.0
20260502110117 51 236 0.0 1.0 0.00 0.00 0.00 99 1019.1
20260502105614 51 244 0.0 0.0 0.00 0.00 0.00 99 1018.9
20260502105111 51 243 0.0 0.0 0.00 0.00 0.00 99 1018.8
20260502104608 51 243 0.0 2.0 0.00 0.00 0.00 99 1018.9
20260502104105 51 240 0.0 0.0 0.00 0.00 0.00 99 1019.0
20260502103603 51 243 0.0 0.0 0.00 0.00 0.00 98 1018.8
20260502103101 51 240 0.0 0.0 0.00 0.00 0.00 98 1018.9
20260502102557 51 239 0.0 1.0 0.00 0.00 0.00 98 1018.8
20260502102054 51 243 0.0 1.0 0.00 0.00 0.00 98 1018.6
20260502101552 51 269 2.0 3.0 0.00 0.00 0.00 98 1018.7
20260502101050 51 243 0.0 0.0 0.00 0.00 0.00 98 1018.6
20260502100548 51 243 1.0 1.0 0.00 0.00 0.00 98 1018.6
20260502091523 52 240 0.0 1.0 0.00 0.00 0.00 96 1017.7
20260502091020 53 274 1.0 2.0 0.00 0.00 0.00 96 1017.7
20260502090517 53 241 0.0 2.0 0.00 0.00 0.00 96 1017.5
20260502071412 54 339 2.0 4.0 0.00 0.00 0.00 94 1017.2
20260502070910 54 247 2.0 6.0 0.00 0.00 0.00 94 1017.3
20260502070408 54 11 4.0 6.0 0.00 0.00 0.00 94 1017.4
20260502065906 54 29 1.0 7.0 0.00 0.00 0.00 94 1017.3
20260502065404 54 254 2.0 7.0 0.00 0.00 0.00 94 1017.2
20260502064902 54 44 3.0 6.0 0.00 0.00 0.00 94 1017.4
20260502064400 54 187 1.0 7.0 0.00 0.00 0.00 94 1017.3
20260502063856 54 224 2.0 2.0 0.00 0.00 0.00 94 1017.4
20260502063354 54 355 5.0 6.0 0.00 0.00 0.00 94 1017.1
20260502062851 54 4 2.0 4.0 0.00 0.00 0.00 94 1017.2
20260502062349 54 15 6.0 8.0 0.00 0.00 0.00 94 1017.2
20260502061848 54 280 2.0 6.0 0.00 0.00 0.00 94 1017.0
20260502061345 54 1 3.0 8.0 0.00 0.00 0.00 94 1017.0
20260502060840 54 349 3.0 4.0 0.00 0.00 0.00 94 1017.1
20260502060336 54 325 2.0 8.0 0.00 0.00 0.00 95 1017.0
20260502055833 54 341 4.0 7.0 0.00 0.00 0.00 95 1017.0
20260502055331 54 192 3.0 6.0 0.00 0.00 0.00 95 1017.1
20260502054831 54 228 2.0 6.0 0.00 0.00 0.00 95 1017.0
20260502054328 54 259 2.0 8.0 0.00 0.00 0.00 95 1017.1
20260502053825 54 323 4.0 6.0 0.00 0.00 0.00 95 1017.1
20260502053322 55 352 5.0 6.0 0.00 0.00 0.00 95 1017.1
20260502052820 55 319 4.0 8.0 0.00 0.00 0.00 95 1017.2
20260502052318 55 340 4.0 9.0 0.00 0.00 0.00 96 1017.1
20260502051815 55 349 2.0 4.0 0.00 0.00 0.00 96 1017.2
20260502051314 55 338 6.0 8.0 0.00 0.00 0.00 96 1017.2
20260502050810 55 248 2.0 6.0 0.00 0.00 0.00 96 1017.1
20260502050306 55 326 5.0 8.0 0.00 0.00 0.00 97 1017.3
20260502045803 55 277 2.0 11.0 0.00 3.86 3.86 97 1016.9
20260502045300 55 273 3.0 7.0 0.00 3.86 3.86 98 1017.1
20260502044757 55 209 1.0 6.0 0.00 3.86 3.86 98 1016.9
20260502044253 55 322 3.0 6.0 0.00 3.86 3.86 98 1017.0
20260502043750 55 294 4.0 4.0 0.00 3.86 3.86 98 1016.8
20260502043248 55 220 2.0 8.0 0.00 3.86 3.86 99 1016.9
20260502042747 55 336 7.0 9.0 0.00 3.86 3.86 99 1016.7
20260502042245 55 333 3.0 6.0 0.00 3.86 3.86 99 1016.6
20260502041743 55 353 5.0 7.0 0.00 3.86 3.86 99 1016.7
20260502041240 55 350 4.0 6.0 0.00 3.86 3.86 99 1016.9
20260502040736 55 265 2.0 3.0 0.00 3.86 3.86 99 1016.7
20260502040233 55 251 1.0 4.0 0.00 3.86 3.86 99 1016.9
20260502035729 55 320 2.0 9.0 0.00 3.86 3.86 99 1017.1
20260502035226 55 355 3.0 8.0 0.00 3.86 3.86 99 1016.8
20260502034724 55 45 3.0 4.0 0.00 3.86 3.86 99 1017.0
20260502034222 55 219 1.0 6.0 0.00 3.86 3.86 99 1016.9
20260502033720 55 334 4.0 10.0 0.00 3.86 3.86 99 1016.9
20260502033217 55 44 4.0 7.0 0.00 3.86 3.86 99 1017.0